Location: Street
(51.1247°N, 2.7429°W)
Time: 01:56:21
(UTC+00:00)

deb Explorer IX - Pass Details

Date: 07 December 2020
Orbit: 536 x 1104 km, 38.8° (Epoch: 20 January)

Event Time Altitude Azimuth Distance (km) Brightness Sun altitude
Rises 16:52:00 0° 259° (W) 3,779 ? -7.2°
Reaches altitude 10° 16:55:27 10° 245° (WSW) 2,742 ? -7.6°
Maximum altitude 17:00:15 22° 198° (SSW) 1,896 ? -8.3°
Drops below altitude 10° 17:04:37 10° 150° (SSE) 2,447 ? -8.9°
Sets 17:07:29 0° 135° (SE) 3,271 ? -9.3°
